Time,TemperatureF,DewpointF,PressureIn,WindDirection,WindDirectionDegrees,WindSpeedMPH,WindSpeedGustMPH,Humidity,HourlyPrecipIn,Conditions,Clouds,dailyrainin,SolarRadiationWatts/m^2,SoftwareType,DateUTC
2014-04-20 00:03:00,44.1,17.4,30.10,SSW,209,8.0,8.0,34,0.00,,,0.00,0.0,meteohub,2014-04-20 07:03:00,
2014-04-20 00:08:00,44.2,17.6,30.10,SSW,209,3.0,8.0,34,0.00,,,0.00,0.0,meteohub,2014-04-20 07:08:00,
2014-04-20 00:13:00,43.9,17.2,30.10,SSW,209,5.0,10.0,34,0.00,,,0.00,0.0,meteohub,2014-04-20 07:13:00,
2014-04-20 00:18:00,43.7,17.2,30.10,SSW,209,5.0,10.0,34,0.00,,,0.00,0.0,meteohub,2014-04-20 07:18:00,
2014-04-20 00:24:00,43.9,18.0,30.10,SSW,209,3.0,9.0,35,0.00,,,0.00,0.0,meteohub,2014-04-20 07:24:00,
2014-04-20 00:29:00,43.5,17.1,30.10,SSW,209,6.0,8.0,34,0.00,,,0.00,0.0,meteohub,2014-04-20 07:29:00,
2014-04-20 00:34:00,43.5,17.6,30.10,SSW,209,8.0,8.0,35,0.00,,,0.00,0.0,meteohub,2014-04-20 07:34:00,
2014-04-20 00:39:00,43.9,17.2,30.10,SSW,209,10.0,10.0,34,0.00,,,0.00,0.0,meteohub,2014-04-20 07:39:00,
2014-04-20 00:44:00,44.1,17.4,30.10,SSW,210,9.0,9.0,34,0.00,,,0.00,0.0,meteohub,2014-04-20 07:44:00,
2014-04-20 00:49:00,44.2,16.9,30.11,SSW,210,3.0,9.0,33,0.00,,,0.00,0.0,meteohub,2014-04-20 07:49:00,
2014-04-20 00:54:00,44.2,16.9,30.11,SSW,210,5.0,10.0,33,0.00,,,0.00,0.0,meteohub,2014-04-20 07:54:00,
2014-04-20 00:59:00,44.4,17.1,30.11,SSW,213,8.0,10.0,33,0.00,,,0.00,0.0,meteohub,2014-04-20 07:59:00,
2014-04-20 01:04:00,44.8,16.7,30.11,SSW,213,3.0,11.0,32,0.00,,,0.00,0.0,meteohub,2014-04-20 08:04:00,
2014-04-20 01:09:00,44.4,17.1,30.11,SSW,213,6.0,11.0,33,0.00,,,0.00,0.0,meteohub,2014-04-20 08:09:00,
2014-04-20 01:14:00,44.2,16.9,30.10,SSW,213,9.0,10.0,33,0.00,,,0.00,0.0,meteohub,2014-04-20 08:14:00,
2014-04-20 01:19:00,44.2,16.9,30.10,SW,228,6.0,11.0,33,0.00,,,0.00,0.0,meteohub,2014-04-20 08:19:00,
2014-04-20 01:24:00,44.2,17.6,30.10,SW,229,6.0,12.0,34,0.00,,,0.00,0.0,meteohub,2014-04-20 08:24:00,
2014-04-20 01:29:00,44.6,18.0,30.10,SW,227,5.0,12.0,34,0.00,,,0.00,0.0,meteohub,2014-04-20 08:29:00,
2014-04-20 01:34:00,45.0,18.3,30.11,SW,227,5.0,12.0,34,0.00,,,0.00,0.0,meteohub,2014-04-20 08:34:00,
2014-04-20 01:39:00,44.4,16.3,30.11,SSW,200,6.0,11.0,32,0.00,,,0.00,0.0,meteohub,2014-04-20 08:39:00,
2014-04-20 01:44:00,44.1,16.7,30.11,South,186,6.0,10.0,33,0.00,,,0.00,0.0,meteohub,2014-04-20 08:44:00,
2014-04-20 01:49:00,43.3,16.2,30.11,South,186,0.0,10.0,33,0.00,,,0.00,0.0,meteohub,2014-04-20 08:49:00,
2014-04-20 01:54:00,43.2,16.7,30.11,South,186,0.0,10.0,34,0.00,,,0.00,0.0,meteohub,2014-04-20 08:54:00,
2014-04-20 01:59:00,42.8,16.3,30.11,South,186,3.0,10.0,34,0.00,,,0.00,0.0,meteohub,2014-04-20 08:59:00,
2014-04-20 02:04:00,42.4,16.0,30.11,South,186,5.0,8.0,34,0.00,,,0.00,0.0,meteohub,2014-04-20 09:04:00,
2014-04-20 02:09:00,41.7,16.2,30.11,SSW,211,6.0,8.0,35,0.00,,,0.00,0.0,meteohub,2014-04-20 09:09:00,
2014-04-20 02:14:00,41.5,16.5,30.11,SW,219,5.0,9.0,36,0.00,,,0.00,0.0,meteohub,2014-04-20 09:14:00,
2014-04-20 02:19:00,41.7,16.7,30.12,SW,219,5.0,9.0,36,0.00,,,0.00,0.0,meteohub,2014-04-20 09:19:00,
2014-04-20 02:24:00,41.5,16.5,30.12,SW,219,8.0,9.0,36,0.00,,,0.00,0.0,meteohub,2014-04-20 09:24:00,
2014-04-20 02:29:00,41.4,17.1,30.11,SW,219,6.0,9.0,37,0.00,,,0.00,0.0,meteohub,2014-04-20 09:29:00,
2014-04-20 02:34:00,41.4,16.3,30.12,SW,219,5.0,10.0,36,0.00,,,0.00,0.0,meteohub,2014-04-20 09:34:00,
2014-04-20 02:39:00,41.0,15.4,30.12,SW,219,6.0,10.0,35,0.00,,,0.00,0.0,meteohub,2014-04-20 09:39:00,